User: anonymous   Login
Location: Newark
(54.3386°S, 169.8415°W)
Time: 14:43:33
(UTC+00:00)
Language:

Courier 1B - Orbit

View from above orbital plane
View from above orbital plane
View from above satellite
View from above satellite

Ground track
Ground track

The orbit data is extracted from the following two-line orbital elements,

1    58U 60013A   19288.39615899  .00000085  00000-0 -36758-5 0  9999
2    58  28.3275 262.9401 0165030 192.1140 167.5403 13.46319375905966
Epoch (UTC): 15 October 2019 09:30:28
Eccentricity: 0.0165030
inclination: 28.3275°
perigee height: 962 km
apogee height: 1209 km
right ascension of ascending node: 262.9401°
argument of perigee: 192.1140°
revolutions per day: 13.46319375
mean anomaly at epoch: 167.5403°
orbit number at epoch: 90596

The dashed part of the orbit path shows where the satellite is in the earth's shadow,  

DLR